SCP
0 0 0 0 0 0 0 0 0 0 0 0 0 0 0 0 0 0 0 0 0 0 0 0 0 0 0 0 0 0 0 0 0 0 0 0 0 0
0 0 0 0 0 0 0 0 0 0 0 0 0 0 0 0 0 0 0 0 0 0 0 0 0 0 0 0 0 0 0 0 0 0 0 0 0 0
0 0 0 0 0 0 0 0 0 0 0 0 0 0 0 0 0 0 0 0 0 0 0 0 0 0 0 0 0 0 0 0 0 0 0 0 0 0
0 0 0 0 0 0 0 0 0 0 0 0 0 0 0 0 0 0 0 0 0 0 0 0 0 0 0 0 0 0 0 0 0 0 0 0 0 0
0 0 0 0 0 0 0 0 0 0 0 0 0 0 0 0 0 0 0 0 0 0 0 0 0 0 0 0 0 0 0 0 0 0 0 0 0 0
0 0 0 0 0 0 0 0 0 0 0 0 0 0 0 0 0 0 0 0 0 0 0 0 0 0 0 0 0 0 0 0 0 0 0 0 0 0
0 0 0 0 0 0 0 0 0 0 0 0 0 0 0 0 0 0 0 0 0 0 0 0 0 0 0 0 0 0 0 0 0 0 0 0 0 0
0 0 0 0 0 0 0 0 0 0 0 0 0 0 0 0 0 0 0 0 0 0 0 0 0 0 0 0 0 0 0 0 0 0 0 0 0 0
0 1 1 1 0 0 0 0 0 0 0 0 0 0 0 0 0 0 0 0 0 0 0 0 0 0 0 0 0 0 0 0 0 0 0 0 0 0
0 0 0 0 0 0 0 0 0 0 0 0 0 0 0 0 0 0 0 0 0 0 0 0 0 0 0 0 0 0 0 0 0 0 0 0 0 0
0 0 0 0 0 0 0 0 0 0 0 0 0 0 0 0 0 0 0 0 0 0 0 0 0 0 0 0 0 0 0 0 0 0 0 0 0 0
0 0 0 0 0 0 0 0 0 0 0 0 0 0 0 0 0 0 0 0 0 0 0 0 0 0 0 0 0 0 0 0 0 0 0 0 0 0
0 0 0 0 0 0 0 0 0 0 0 0 0 0 0 0 0 0 0 0 0 0 0 0 0 0 0 0 0 0 0 0 0 0 0 0 0 -0
0 0 0 0 0 0 0 0 0 0 0 0 0 0 0 0 0 0 0 0 0 0 0 0 0 0 0 0 0 0 0 0 0 0 0 0 -0 -0
0 0 0 0 0 0 0 0 0 0 0 0 0 0 0 -0 0 0 0 0 0 0 0 0 0 0 0 0 0 0 0 0 0 0 0 0 0 -0
0 0 0 0 0 0 0 0 0 0 0 0 0 0 -0 0 0 0 0 0 0 0 0 0 0 0 0 0 0 0 0 0 0 0 0 0 -0 0
0 0 0 0 0 0 0 0 0 0 0 0 0 0 0 0 0 0 0 0 0 0 0 0 0 0 0 0 0 0 0 0 0 0 0 -0 -0 0
0 0 0 0 0 0 0 0 0 0 0 0 0 -0 0 0 0 0 0 0 0 0 0 0 0 0 0 0 0 0 0 0 0 0 -0 -0 0 0
0 0 0 -0 -0 -0 0 0 0 0 0 0 0 0 0 0 0 0 0 0 0 0 0 0 0 0 0 0 0 0 0 0 0 0 0 0 0 0
0 0 -0 -0 -0 -0 0 0 0 0 0 0 0 0 0 0 0 0 0 0 0 0 0 0 0 0 0 0 0 0 0 0 0 0 0 -0 -0 -0
0 0 0 0 0 0 -0 -0 -0 0 0 0 0 0 0 0 0 0 0 0 0 0 0 0 0 0 0 0 0 0 0 -0 0 0 0 0 -0 -0
0 0 0 0 0 0 -0 0 0 0 0 0 0 0 0 0 0 0 0 0 0 0 0 0 0 0 0 0 0 0 -0 0 0 -0 -0 0 -0 -0
0 0 0 0 -0 -0 -0 0 0 0 0 0 0 0 0 0 0 0 0 0 0 0 0 0 0 0 0 0 0 0 0 -0 0 0 0 0 -0 0
Wind_Speed_500mb
44 43 42 34 35 34 34 35 33 40 36 32 30 29 24 22 20 17 22 32 40 43 43 36 36 42 45 48 49 50 51 48 46 44 41 38 37 35
44 37 40 41 38 31 36 35 34 40 40 30 28 29 25 23 25 27 25 36 41 43 49 50 37 37 44 46 48 52 53 54 51 49 43 40 38 37
46 48 48 46 38 42 42 37 40 42 43 40 33 28 33 29 27 27 25 27 29 31 24 24 28 33 41 46 49 53 54 54 52 44 39 38 37 37
44 48 48 48 51 47 45 48 40 38 47 45 43 38 38 34 31 37 37 36 35 27 28 29 31 37 36 38 39 40 40 39 37 35 34 36 36 35
52 56 54 49 54 50 54 48 53 46 46 46 47 48 49 33 45 41 42 41 40 31 33 29 27 26 26 25 29 30 27 28 30 32 33 31 30 30
55 61 64 63 64 59 58 61 60 59 65 63 56 61 60 54 52 48 48 44 31 28 30 27 30 27 27 30 29 25 25 23 23 25 25 25 27 26
42 43 48 58 68 66 66 63 62 66 70 71 76 74 72 67 63 56 45 33 33 39 27 25 23 22 28 27 24 23 21 23 25 25 25 23 21 20
46 45 48 44 47 57 62 67 67 66 69 76 78 76 77 63 59 48 37 36 32 28 31 29 21 24 24 23 29 32 21 17 16 17 18 18 18 18
47 47 48 45 42 37 41 43 46 59 66 63 69 69 74 74 50 43 38 37 35 39 37 27 23 25 21 21 28 23 16 14 12 12 15 20 22 25
50 49 43 49 51 59 55 54 62 53 54 60 65 60 59 54 45 36 37 33 27 23 29 25 21 21 16 18 24 15 12 14 18 21 21 21 23 26
44 49 54 58 47 48 50 50 54 58 53 51 55 49 48 43 42 41 38 36 31 33 30 25 19 17 15 13 17 14 15 11 11 13 19 22 22 23
46 49 49 48 63 72 45 47 52 53 55 47 48 53 47 49 47 43 35 30 30 27 37 22 21 16 17 18 15 18 15 18 22 16 20 17 20 18
49 50 50 51 44 45 44 54 56 47 51 54 45 51 46 54 51 46 42 34 26 21 26 22 22 20 18 13 15 14 15 16 16 18 21 16 16 19
51 48 46 50 51 49 52 56 54 43 46 38 54 55 56 49 44 40 37 33 25 17 20 29 25 22 21 20 16 13 16 16 12 15 19 15 21 22
55 48 48 51 56 59 56 49 44 47 47 38 40 44 47 38 30 32 32 33 29 28 27 29 25 22 21 20 17 19 13 12 13 16 20 19 19 18
52 47 49 50 51 47 44 39 34 35 37 44 43 38 34 34 33 29 29 28 30 29 32 32 31 27 21 17 17 18 15 11 13 19 17 17 15 14
55 44 41 45 42 38 29 26 31 29 35 36 32 28 29 29 28 30 29 31 31 30 31 31 33 29 20 17 18 17 15 13 12 13 12 10 9 11
44 36 31 32 32 30 24 28 32 32 29 32 24 22 20 23 24 26 29 31 30 28 27 26 30 20 20 20 22 15 12 13 10 8 10 10 6 6
27 28 27 29 28 23 16 22 31 29 16 14 11 15 17 18 20 25 29 30 30 23 26 22 20 20 20 22 13 20 14 9 7 10 7 6 5 6
11 8 12 7 15 8 13 26 23 11 7 12 13 13 14 16 18 21 23 21 23 20 19 19 17 18 20 20 14 11 13 13 10 9 7 6 8 7
19 17 27 26 21 20 16 11 12 12 12 11 9 9 11 14 17 18 18 20 19 16 18 25 21 22 14 16 15 15 12 15 19 8 5 4 7 12
29 27 18 19 18 16 14 11 9 9 7 4 4 5 6 9 13 13 11 16 19 16 19 17 13 16 22 21 17 17 13 8 13 8 8 10 12 9
23 22 21 19 16 14 10 6 6 4 1 2 2 1 3 6 9 10 9 12 12 18 19 17 17 23 20 19 18 18 19 18 14 7 8 12 16 21
Wind_Direction_500mb
259 257 251 243 248 238 242 239 245 257 254 239 241 243 231 237 236 250 235 256 251 256 263 264 276 269 268 271 271 275 279 286 294 299 288 293 298 299
259 250 248 247 246 238 238 246 244 247 253 248 251 232 230 229 243 250 246 256 267 264 267 268 275 269 268 271 273 275 276 280 284 289 282 283 294 297
255 260 257 251 236 235 246 241 235 238 246 247 242 235 234 231 238 247 249 256 268 276 271 273 279 277 278 278 277 275 275 277 279 279 274 276 289 292
260 257 260 253 248 241 232 246 246 240 236 244 247 239 231 251 251 240 262 251 250 250 264 276 282 286 286 284 282 281 278 275 273 271 272 278 283 289
256 262 259 252 249 244 248 245 250 244 239 241 241 241 245 262 241 253 250 253 258 258 264 274 279 293 290 294 293 284 284 276 272 269 272 274 280 284
270 265 262 255 251 248 247 252 250 246 252 253 246 245 248 248 254 251 248 260 246 231 237 257 273 287 302 303 297 281 278 278 274 270 268 271 278 280
283 280 273 267 256 256 250 250 256 255 250 251 250 251 248 242 245 247 252 249 237 235 253 253 274 288 293 299 302 295 281 277 275 268 262 267 268 276
283 279 277 277 264 258 258 259 264 264 256 256 254 247 250 239 244 242 247 226 230 235 228 240 259 271 282 272 263 273 277 284 286 268 260 258 263 273
299 286 275 266 260 263 266 274 273 266 258 262 257 257 246 244 243 231 212 221 234 240 241 248 256 273 272 271 281 290 260 272 283 279 275 270 268 278
292 296 287 280 278 278 269 263 267 277 269 254 255 252 253 251 232 217 220 227 234 213 215 245 258 262 264 268 276 278 256 270 279 283 279 276 276 287
285 282 286 288 290 287 281 275 272 273 271 277 251 240 245 224 199 201 205 237 212 219 225 231 251 252 254 244 264 306 324 287 305 301 284 277 284 284
292 278 274 290 283 272 286 280 281 287 268 258 254 236 219 203 203 216 231 205 219 217 217 216 234 235 249 221 229 269 292 301 308 309 321 285 278 291
294 289 286 286 285 283 278 272 276 296 285 245 246 217 205 202 209 217 208 203 223 234 190 209 227 233 242 251 252 259 258 281 291 295 303 304 293 289
290 289 287 284 287 282 277 278 271 274 275 257 222 200 205 205 219 212 206 203 214 229 210 220 231 250 239 254 262 264 262 259 260 268 289 292 304 296
294 291 284 284 282 282 283 282 265 249 253 221 204 199 203 201 193 199 197 208 213 219 217 227 228 242 254 256 268 272 268 249 258 277 280 268 280 288
298 294 288 289 292 288 281 270 240 229 219 203 195 207 210 192 193 198 202 208 218 225 222 226 235 241 249 255 268 271 257 248 271 286 273 263 275 283
305 294 291 296 300 289 276 240 220 210 189 204 195 205 197 192 195 199 207 214 226 229 226 225 235 239 243 250 266 263 241 254 283 289 266 264 276 280
295 296 290 290 297 277 271 226 198 179 179 170 200 194 194 204 201 208 220 229 234 237 224 209 210 206 241 257 225 242 228 250 268 286 291 273 258 264
290 292 291 294 295 270 224 190 171 159 168 182 187 210 211 217 212 228 238 239 239 234 208 206 220 223 215 221 220 210 235 254 267 287 286 291 274 276
328 341 346 349 162 153 145 145 134 135 189 180 186 197 210 220 227 232 233 234 227 215 212 188 204 212 218 204 185 208 254 252 272 266 280 310 275 308
75 55 55 48 89 80 82 101 125 148 155 159 179 199 217 228 239 243 226 206 202 197 193 202 202 205 210 221 220 223 252 270 220 226 296 269 262 274
73 70 55 54 67 79 95 113 119 127 133 147 181 212 231 237 236 221 221 216 218 216 216 219 223 224 203 205 203 186 181 140 175 201 267 259 267 297
63 62 62 58 54 56 64 79 82 74 51 244 235 213 211 205 195 196 164 193 222 222 200 187 173 171 180 180 181 181 180 156 142 187 244 274 286 277
Wind_Speed_850mb
44 43 42 34 35 34 34 35 33 40 36 32 30 29 24 22 20 17 22 32 40 43 43 36 36 42 45 48 49 50 51 48 46 44 41 38 37 35
44 37 40 41 38 31 36 35 34 40 40 30 28 29 25 23 25 27 25 36 41 43 49 50 37 37 44 46 48 52 53 54 51 49 43 40 38 37
46 48 48 46 38 42 42 37 40 42 43 40 33 28 33 29 27 27 25 27 29 31 24 24 28 33 41 46 49 53 54 54 52 44 39 38 37 37
44 48 48 48 51 47 45 48 40 38 47 45 43 38 38 34 31 37 37 36 35 27 28 29 31 37 36 38 39 40 40 39 37 35 34 36 36 35
52 56 54 49 54 50 54 48 53 46 46 46 47 48 49 33 45 41 42 41 40 31 33 29 27 26 26 25 29 30 27 28 30 32 33 31 30 30
55 61 64 63 64 59 58 61 60 59 65 63 56 61 60 54 52 48 48 44 31 28 30 27 30 27 27 30 29 25 25 23 23 25 25 25 27 26
42 43 48 58 68 66 66 63 62 66 70 71 76 74 72 67 63 56 45 33 33 39 27 25 23 22 28 27 24 23 21 23 25 25 25 23 21 20
46 45 48 44 47 57 62 67 67 66 69 76 78 76 77 63 59 48 37 36 32 28 31 29 21 24 24 23 29 32 21 17 16 17 18 18 18 18
47 47 48 45 42 37 41 43 46 59 66 63 69 69 74 74 50 43 38 37 35 39 37 27 23 25 21 21 28 23 16 14 12 12 15 20 22 25
50 49 43 49 51 59 55 54 62 53 54 60 65 60 59 54 45 36 37 33 27 23 29 25 21 21 16 18 24 15 12 14 18 21 21 21 23 26
44 49 54 58 47 48 50 50 54 58 53 51 55 49 48 43 42 41 38 36 31 33 30 25 19 17 15 13 17 14 15 11 11 13 19 22 22 23
46 49 49 48 63 72 45 47 52 53 55 47 48 53 47 49 47 43 35 30 30 27 37 22 21 16 17 18 15 18 15 18 22 16 20 17 20 18
49 50 50 51 44 45 44 54 56 47 51 54 45 51 46 54 51 46 42 34 26 21 26 22 22 20 18 13 15 14 15 16 16 18 21 16 16 19
51 48 46 50 51 49 52 56 54 43 46 38 54 55 56 49 44 40 37 33 25 17 20 29 25 22 21 20 16 13 16 16 12 15 19 15 21 22
55 48 48 51 56 59 56 49 44 47 47 38 40 44 47 38 30 32 32 33 29 28 27 29 25 22 21 20 17 19 13 12 13 16 20 19 19 18
52 47 49 50 51 47 44 39 34 35 37 44 43 38 34 34 33 29 29 28 30 29 32 32 31 27 21 17 17 18 15 11 13 19 17 17 15 14
55 44 41 45 42 38 29 26 31 29 35 36 32 28 29 29 28 30 29 31 31 30 31 31 33 29 20 17 18 17 15 13 12 13 12 10 9 11
44 36 31 32 32 30 24 28 32 32 29 32 24 22 20 23 24 26 29 31 30 28 27 26 30 20 20 20 22 15 12 13 10 8 10 10 6 6
27 28 27 29 28 23 16 22 31 29 16 14 11 15 17 18 20 25 29 30 30 23 26 22 20 20 20 22 13 20 14 9 7 10 7 6 5 6
11 8 12 7 15 8 13 26 23 11 7 12 13 13 14 16 18 21 23 21 23 20 19 19 17 18 20 20 14 11 13 13 10 9 7 6 8 7
19 17 27 26 21 20 16 11 12 12 12 11 9 9 11 14 17 18 18 20 19 16 18 25 21 22 14 16 15 15 12 15 19 8 5 4 7 12
29 27 18 19 18 16 14 11 9 9 7 4 4 5 6 9 13 13 11 16 19 16 19 17 13 16 22 21 17 17 13 8 13 8 8 10 12 9
23 22 21 19 16 14 10 6 6 4 1 2 2 1 3 6 9 10 9 12 12 18 19 17 17 23 20 19 18 18 19 18 14 7 8 12 16 21
Wind_Direction_850mb
259 257 251 243 248 238 242 239 245 257 254 239 241 243 231 237 236 250 235 256 251 256 263 264 276 269 268 271 271 275 279 286 294 299 288 293 298 299
259 250 248 247 246 238 238 246 244 247 253 248 251 232 230 229 243 250 246 256 267 264 267 268 275 269 268 271 273 275 276 280 284 289 282 283 294 297
255 260 257 251 236 235 246 241 235 238 246 247 242 235 234 231 238 247 249 256 268 276 271 273 279 277 278 278 277 275 275 277 279 279 274 276 289 292
260 257 260 253 248 241 232 246 246 240 236 244 247 239 231 251 251 240 262 251 250 250 264 276 282 286 286 284 282 281 278 275 273 271 272 278 283 289
256 262 259 252 249 244 248 245 250 244 239 241 241 241 245 262 241 253 250 253 258 258 264 274 279 293 290 294 293 284 284 276 272 269 272 274 280 284
270 265 262 255 251 248 247 252 250 246 252 253 246 245 248 248 254 251 248 260 246 231 237 257 273 287 302 303 297 281 278 278 274 270 268 271 278 280
283 280 273 267 256 256 250 250 256 255 250 251 250 251 248 242 245 247 252 249 237 235 253 253 274 288 293 299 302 295 281 277 275 268 262 267 268 276
283 279 277 277 264 258 258 259 264 264 256 256 254 247 250 239 244 242 247 226 230 235 228 240 259 271 282 272 263 273 277 284 286 268 260 258 263 273
299 286 275 266 260 263 266 274 273 266 258 262 257 257 246 244 243 231 212 221 234 240 241 248 256 273 272 271 281 290 260 272 283 279 275 270 268 278
292 296 287 280 278 278 269 263 267 277 269 254 255 252 253 251 232 217 220 227 234 213 215 245 258 262 264 268 276 278 256 270 279 283 279 276 276 287
285 282 286 288 290 287 281 275 272 273 271 277 251 240 245 224 199 201 205 237 212 219 225 231 251 252 254 244 264 306 324 287 305 301 284 277 284 284
292 278 274 290 283 272 286 280 281 287 268 258 254 236 219 203 203 216 231 205 219 217 217 216 234 235 249 221 229 269 292 301 308 309 321 285 278 291
294 289 286 286 285 283 278 272 276 296 285 245 246 217 205 202 209 217 208 203 223 234 190 209 227 233 242 251 252 259 258 281 291 295 303 304 293 289
290 289 287 284 287 282 277 278 271 274 275 257 222 200 205 205 219 212 206 203 214 229 210 220 231 250 239 254 262 264 262 259 260 268 289 292 304 296
294 291 284 284 282 282 283 282 265 249 253 221 204 199 203 201 193 199 197 208 213 219 217 227 228 242 254 256 268 272 268 249 258 277 280 268 280 288
298 294 288 289 292 288 281 270 240 229 219 203 195 207 210 192 193 198 202 208 218 225 222 226 235 241 249 255 268 271 257 248 271 286 273 263 275 283
305 294 291 296 300 289 276 240 220 210 189 204 195 205 197 192 195 199 207 214 226 229 226 225 235 239 243 250 266 263 241 254 283 289 266 264 276 280
295 296 290 290 297 277 271 226 198 179 179 170 200 194 194 204 201 208 220 229 234 237 224 209 210 206 241 257 225 242 228 250 268 286 291 273 258 264
290 292 291 294 295 270 224 190 171 159 168 182 187 210 211 217 212 228 238 239 239 234 208 206 220 223 215 221 220 210 235 254 267 287 286 291 274 276
328 341 346 349 162 153 145 145 134 135 189 180 186 197 210 220 227 232 233 234 227 215 212 188 204 212 218 204 185 208 254 252 272 266 280 310 275 308
75 55 55 48 89 80 82 101 125 148 155 159 179 199 217 228 239 243 226 206 202 197 193 202 202 205 210 221 220 223 252 270 220 226 296 269 262 274
73 70 55 54 67 79 95 113 119 127 133 147 181 212 231 237 236 221 221 216 218 216 216 219 223 224 203 205 203 186 181 140 175 201 267 259 267 297
63 62 62 58 54 56 64 79 82 74 51 244 235 213 211 205 195 196 164 193 222 222 200 187 173 171 180 180 181 181 180 156 142 187 244 274 286 277